Puyallup, WA
on Monday, November 5, 2012

Monday
Previous Day Next Day
Daily Summary
 ActualAverage (KSEA)Record (KSEA)
Temperature
Mean Temperature °F / °C 48°F / 9°C  
Max Temperature 59°F / 15°C 53°F / 12°C 65°F / 18°C (1949)
Min Temperature 41°F / 5°C 42°F / 6°C 31°F / 0°C (1961)
Degree Days
Heating Degree Days 15 17  
Month to date heating degree days 84  
Since 1 July heating degree days 681  
Cooling Degree Days 0 0  
Month to date cooling degree days 0  
Year to date cooling degree days 189  
Moisture
Dew Point 48°F / 9°C   
Average Humidity 87    
Maximum Humidity 100    
Minimum Humidity 48    
Precipitation
Precipitation 0.20 in / 5.08 cm 0.20 in / 5.08 cm 1.01 in / 2.57 cm (1988)
Month to date precipitation 0.98  
Year to date precipitation 26.55  
Snow
Snow 0.00 in / 0.00 cm in / cm T in / T cm (1973)
Month to date snowfall  
Since 1 July snowfall  
Snow Depth in / cm   
Wind
Wind Speed 1 mph / 2 km/h   
Max Wind Speed 6 mph / 10 km/h   
Max Gust Speed mph / km/h   
Visibility 8 miles / 12 kilometers   
Events Rain   

Key: T is trace of precipitation, MM is missing value
Source: NWS Daily Summary
Time(PST)TemperatureDew PointHumidity Pressure Visibility Wind DirectionWind SpeedGust SpeedPrecipitationEvents Conditions
12:15 AM 59.0°F / 15.0°C 59.0°F / 15.0°C 100% 30.32 in / 1026.6 hPa 3.0 miles / 4.8 kilometers WNW 3.5 mph / 5.6 km/h - 0.01 in / 0.3 cm Rain Light Rain
12:35 AM 59.0°F / 15.0°C 59.0°F / 15.0°C 100% 30.32 in / 1026.6 hPa 3.0 miles / 4.8 kilometers Calm Calm - 0.04 in / 1.0 cm Rain Light Rain
12:55 AM 57.2°F / 14.0°C 57.2°F / 14.0°C 100% 30.33 in / 1027.0 hPa 2.0 miles / 3.2 kilometers WNW 5.8 mph / 9.3 km/h - 0.09 in / 2.3 cm Rain Light Rain
1:15 AM 57.2°F / 14.0°C 57.2°F / 14.0°C 100% 30.32 in / 1026.6 hPa 2.0 miles / 3.2 kilometers Calm Calm - 0.01 in / 0.3 cm Rain Light Rain
1:35 AM 57.2°F / 14.0°C 57.2°F / 14.0°C 100% 30.32 in / 1026.6 hPa 1.8 miles / 2.8 kilometers Calm Calm - 0.02 in / 0.5 cm Rain Light Rain
1:55 AM 57.2°F / 14.0°C 57.2°F / 14.0°C 100% 30.34 in / 1027.3 hPa 1.8 miles / 2.8 kilometers Calm Calm - 0.04 in / 1.0 cm Rain Light Rain
2:15 AM 55.4°F / 13.0°C 55.4°F / 13.0°C 100% 30.35 in / 1027.7 hPa 2.5 miles / 4.0 kilometers Calm Calm - 0.02 in / 0.5 cm Rain Light Rain
2:35 AM 55.4°F / 13.0°C 55.4°F / 13.0°C 100% 30.35 in / 1027.7 hPa 4.0 miles / 6.4 kilometers Calm Calm - 0.03 in / 0.8 cm Rain Light Rain
2:55 AM 55.4°F / 13.0°C 55.4°F / 13.0°C 100% 30.35 in / 1027.7 hPa 4.0 miles / 6.4 kilometers Calm Calm - 0.03 in / 0.8 cm Rain Light Rain
3:15 AM 55.4°F / 13.0°C 55.4°F / 13.0°C 100% 30.35 in / 1027.7 hPa 2.0 miles / 3.2 kilometers Calm Calm - 0.01 in / 0.3 cm Rain Light Rain
3:35 AM 55.4°F / 13.0°C 55.4°F / 13.0°C 100% 30.36 in / 1028.0 hPa 7.0 miles / 11.3 kilometers Calm Calm - 0.01 in / 0.3 cm Rain Light Rain
3:55 AM 55.4°F / 13.0°C 55.4°F / 13.0°C 100% 30.36 in / 1028.0 hPa 3.0 miles / 4.8 kilometers North 4.6 mph / 7.4 km/h - 0.02 in / 0.5 cm Rain Light Rain
4:15 AM 53.6°F / 12.0°C 53.6°F / 12.0°C 100% 30.36 in / 1028.0 hPa 1.5 miles / 2.4 kilometers Calm Calm - 0.01 in / 0.3 cm Rain Light Rain
4:35 AM 53.6°F / 12.0°C 53.6°F / 12.0°C 100% 30.37 in / 1028.3 hPa 2.5 miles / 4.0 kilometers Calm Calm - 0.02 in / 0.5 cm Rain Light Rain
4:55 AM 51.8°F / 11.0°C 51.8°F / 11.0°C 100% 30.38 in / 1028.7 hPa 9.0 miles / 14.5 kilometers Calm Calm - 0.02 in / 0.5 cm   Overcast
5:15 AM 51.8°F / 11.0°C 51.8°F / 11.0°C 100% 30.38 in / 1028.7 hPa 5.0 miles / 8.0 kilometers Calm Calm - N/A Rain Light Rain
5:35 AM 51.8°F / 11.0°C 51.8°F / 11.0°C 100% 30.38 in / 1028.7 hPa 7.0 miles / 11.3 kilometers Calm Calm - N/A   Overcast
5:55 AM 51.8°F / 11.0°C 51.8°F / 11.0°C 100% 30.37 in / 1028.3 hPa 7.0 miles / 11.3 kilometers Calm Calm - N/A   Mostly Cloudy
6:15 AM 50.0°F / 10.0°C 50.0°F / 10.0°C 100% 30.37 in / 1028.3 hPa 8.0 miles / 12.9 kilometers Calm Calm - N/A   Mostly Cloudy
6:35 AM 50.0°F / 10.0°C 50.0°F / 10.0°C 100% 30.37 in / 1028.3 hPa 8.0 miles / 12.9 kilometers Calm Calm - N/A   Overcast
6:55 AM 50.0°F / 10.0°C 50.0°F / 10.0°C 100% 30.37 in / 1028.3 hPa 6.0 miles / 9.7 kilometers Calm Calm - N/A   Mostly Cloudy
7:15 AM 50.0°F / 10.0°C 50.0°F / 10.0°C 100% 30.38 in / 1028.7 hPa 7.0 miles / 11.3 kilometers Calm Calm - N/A   Mostly Cloudy
7:35 AM 50.0°F / 10.0°C 50.0°F / 10.0°C 100% 30.39 in / 1029.0 hPa 6.0 miles / 9.7 kilometers Calm Calm - N/A   Mostly Cloudy
7:55 AM 50.0°F / 10.0°C 50.0°F / 10.0°C 100% 30.38 in / 1028.7 hPa 6.0 miles / 9.7 kilometers Calm Calm - N/A   Mostly Cloudy
8:15 AM 50.0°F / 10.0°C 50.0°F / 10.0°C 100% 30.38 in / 1028.7 hPa 4.0 miles / 6.4 kilometers Calm Calm - N/A   Scattered Clouds
8:35 AM 50.0°F / 10.0°C 50.0°F / 10.0°C 100% 30.37 in / 1028.3 hPa 7.0 miles / 11.3 kilometers Calm Calm - N/A   Mostly Cloudy
8:55 AM 51.8°F / 11.0°C 51.8°F / 11.0°C 100% 30.39 in / 1029.0 hPa 8.0 miles / 12.9 kilometers Calm Calm - N/A   Overcast
9:15 AM 51.8°F / 11.0°C 50.0°F / 10.0°C 94% 30.39 in / 1029.0 hPa 9.0 miles / 14.5 kilometers Calm Calm - N/A   Mostly Cloudy
9:35 AM 53.6°F / 12.0°C 50.0°F / 10.0°C 88% 30.39 in / 1029.0 hPa 9.0 miles / 14.5 kilometers Calm Calm - N/A   Clear
9:55 AM 53.6°F / 12.0°C 50.0°F / 10.0°C 88% 30.38 in / 1028.7 hPa 10.0 miles / 16.1 kilometers Calm Calm - N/A   Clear
10:15 AM 55.4°F / 13.0°C 50.0°F / 10.0°C 82% 30.38 in / 1028.7 hPa 10.0 miles / 16.1 kilometers Calm Calm - N/A   Partly Cloudy
10:35 AM 55.4°F / 13.0°C 48.2°F / 9.0°C 77% 30.39 in / 1029.0 hPa 10.0 miles / 16.1 kilometers Calm Calm - N/A   Scattered Clouds
10:55 AM 57.2°F / 14.0°C 46.4°F / 8.0°C 67% 30.38 in / 1028.7 hPa 10.0 miles / 16.1 kilometers Calm Calm - N/A   Partly Cloudy
11:15 AM 57.2°F / 14.0°C 46.4°F / 8.0°C 67% 30.38 in / 1028.7 hPa 10.0 miles / 16.1 kilometers Calm Calm - N/A   Clear
11:35 AM 57.2°F / 14.0°C 44.6°F / 7.0°C 63% 30.39 in / 1029.0 hPa 10.0 miles / 16.1 kilometers NE 4.6 mph / 7.4 km/h - N/A   Clear
11:55 AM 57.2°F / 14.0°C 44.6°F / 7.0°C 63% 30.38 in / 1028.7 hPa 10.0 miles / 16.1 kilometers Calm Calm - N/A   Clear
12:15 PM 59.0°F / 15.0°C 44.6°F / 7.0°C 59% 30.37 in / 1028.3 hPa 10.0 miles / 16.1 kilometers Calm Calm - N/A   Clear
12:35 PM 59.0°F / 15.0°C 42.8°F / 6.0°C 55% 30.36 in / 1028.0 hPa 10.0 miles / 16.1 kilometers Calm Calm - N/A   Clear
12:55 PM 59.0°F / 15.0°C 41.0°F / 5.0°C 51% 30.36 in / 1028.0 hPa 10.0 miles / 16.1 kilometers ENE 4.6 mph / 7.4 km/h - N/A   Clear
1:15 PM 59.0°F / 15.0°C 39.2°F / 4.0°C 48% 30.35 in / 1027.7 hPa 10.0 miles / 16.1 kilometers Calm Calm - N/A   Partly Cloudy
1:35 PM 59.0°F / 15.0°C 39.2°F / 4.0°C 48% 30.35 in / 1027.7 hPa 10.0 miles / 16.1 kilometers Calm Calm - N/A   Clear
1:55 PM 59.0°F / 15.0°C 39.2°F / 4.0°C 48% 30.34 in / 1027.3 hPa 10.0 miles / 16.1 kilometers North 3.5 mph / 5.6 km/h - N/A   Clear
2:15 PM 59.0°F / 15.0°C 39.2°F / 4.0°C 48% 30.34 in / 1027.3 hPa 10.0 miles / 16.1 kilometers Calm Calm - N/A   Clear
2:35 PM 59.0°F / 15.0°C 41.0°F / 5.0°C 51% 30.32 in / 1026.6 hPa 10.0 miles / 16.1 kilometers Calm Calm - N/A   Clear
2:55 PM 57.2°F / 14.0°C 41.0°F / 5.0°C 55% 30.32 in / 1026.6 hPa 10.0 miles / 16.1 kilometers Calm Calm - N/A   Clear
3:15 PM 57.2°F / 14.0°C 42.8°F / 6.0°C 59% 30.31 in / 1026.3 hPa 10.0 miles / 16.1 kilometers Calm Calm - N/A   Clear
3:35 PM 57.2°F / 14.0°C 42.8°F / 6.0°C 59% 30.31 in / 1026.3 hPa 10.0 miles / 16.1 kilometers Calm Calm - N/A   Clear
3:55 PM 55.4°F / 13.0°C 42.8°F / 6.0°C 63% 30.31 in / 1026.3 hPa 10.0 miles / 16.1 kilometers Calm Calm - N/A   Clear
4:15 PM 55.4°F / 13.0°C 44.6°F / 7.0°C 67% 30.30 in / 1026.0 hPa 10.0 miles / 16.1 kilometers Calm Calm - N/A   Clear
4:35 PM 53.6°F / 12.0°C 44.6°F / 7.0°C 72% 30.30 in / 1026.0 hPa 10.0 miles / 16.1 kilometers Calm Calm - N/A   Clear
4:55 PM 51.8°F / 11.0°C 44.6°F / 7.0°C 76% 30.30 in / 1026.0 hPa 10.0 miles / 16.1 kilometers North 3.5 mph / 5.6 km/h - N/A   Clear
5:15 PM 50.0°F / 10.0°C 44.6°F / 7.0°C 82% 30.29 in / 1025.6 hPa 10.0 miles / 16.1 kilometers Calm Calm - N/A   Clear
5:35 PM 48.2°F / 9.0°C 44.6°F / 7.0°C 87% 30.28 in / 1025.3 hPa 10.0 miles / 16.1 kilometers Calm Calm - N/A   Clear
5:55 PM 46.4°F / 8.0°C 44.6°F / 7.0°C 93% 30.28 in / 1025.3 hPa 10.0 miles / 16.1 kilometers Calm Calm - N/A   Clear
6:15 PM 46.4°F / 8.0°C 44.6°F / 7.0°C 93% 30.28 in / 1025.3 hPa 10.0 miles / 16.1 kilometers Calm Calm - N/A   Clear
6:35 PM 46.4°F / 8.0°C 44.6°F / 7.0°C 93% 30.28 in / 1025.3 hPa 10.0 miles / 16.1 kilometers Calm Calm - N/A   Clear
6:55 PM 44.6°F / 7.0°C 44.6°F / 7.0°C 100% 30.26 in / 1024.6 hPa 10.0 miles / 16.1 kilometers Calm Calm - N/A   Clear
7:15 PM 44.6°F / 7.0°C 44.6°F / 7.0°C 100% 30.26 in / 1024.6 hPa 10.0 miles / 16.1 kilometers Calm Calm - N/A   Clear
7:35 PM 44.6°F / 7.0°C 44.6°F / 7.0°C 100% 30.25 in / 1024.3 hPa 10.0 miles / 16.1 kilometers Calm Calm - N/A   Clear
7:55 PM 44.6°F / 7.0°C 44.6°F / 7.0°C 100% 30.25 in / 1024.3 hPa 10.0 miles / 16.1 kilometers Calm Calm - N/A   Clear
8:15 PM 44.6°F / 7.0°C 44.6°F / 7.0°C 100% 30.24 in / 1023.9 hPa 10.0 miles / 16.1 kilometers Calm Calm - N/A   Clear
8:35 PM 44.6°F / 7.0°C 44.6°F / 7.0°C 100% 30.23 in / 1023.6 hPa 10.0 miles / 16.1 kilometers Calm Calm - N/A   Clear
8:55 PM 44.6°F / 7.0°C 44.6°F / 7.0°C 100% 30.23 in / 1023.6 hPa 10.0 miles / 16.1 kilometers Calm Calm - N/A   Clear
9:15 PM 44.6°F / 7.0°C 44.6°F / 7.0°C 100% 30.22 in / 1023.2 hPa 10.0 miles / 16.1 kilometers Calm Calm - N/A   Clear
9:35 PM 42.8°F / 6.0°C 42.8°F / 6.0°C 100% 30.22 in / 1023.2 hPa 7.0 miles / 11.3 kilometers Calm Calm - N/A   Clear
9:55 PM 42.8°F / 6.0°C 42.8°F / 6.0°C 100% 30.20 in / 1022.6 hPa 8.0 miles / 12.9 kilometers Calm Calm - N/A   Clear
10:15 PM 44.6°F / 7.0°C 44.6°F / 7.0°C 100% 30.19 in / 1022.2 hPa 8.0 miles / 12.9 kilometers Calm Calm - N/A   Clear
10:35 PM 41.0°F / 5.0°C 41.0°F / 5.0°C 100% 30.20 in / 1022.6 hPa 5.0 miles / 8.0 kilometers Calm Calm - N/A   Clear
10:55 PM 41.0°F / 5.0°C 41.0°F / 5.0°C 100% 30.19 in / 1022.2 hPa 6.0 miles / 9.7 kilometers Calm Calm - N/A   Clear
11:15 PM 42.8°F / 6.0°C 42.8°F / 6.0°C 100% 30.18 in / 1021.9 hPa 7.0 miles / 11.3 kilometers Calm Calm - N/A   Clear
11:35 PM 41.0°F / 5.0°C 41.0°F / 5.0°C 100% 30.17 in / 1021.6 hPa 4.0 miles / 6.4 kilometers Calm Calm - N/A   Clear
11:55 PM 41.0°F / 5.0°C 41.0°F / 5.0°C 100% 30.17 in / 1021.6 hPa 5.0 miles / 8.0 kilometers Calm Calm - N/A   Partly Cloudy
Moon Phase
Nov. 05 Nov. 06 Nov. 13 Nov. 20 Nov. 28
Sunrise:06:58 AM (PST) Moon Rise:10:29 PM (PST)11/5
Sunset:04:45 PM (PST) Moon Set:12:21 PM (PST)11/5

Copyright © 2014 The Weather Underground, Inc.